This is the latest recevied weather packets stored in our database for station/object S56WDN-10. If no packets are shown the sender has not sent any weather packets the latest 10 day(s).
| Time | Temp. | Humidity | Pressure | Rain* | Wind** | Luminosity | Snow |
|---|---|---|---|---|---|---|---|
| 1777887421 | 22.78° C | 42% | 1016.7 hPa | 0 mm | - | - | - |
| 1777887121 | 22.78° C | 42% | 1016.7 hPa | 0 mm | - | - | - |
| 1777886821 | 22.78° C | 42% | 1016.9 hPa | 0 mm | - | - | - |
| 1777886521 | 22.78° C | 42% | 1017 hPa | 0 mm | - | - | - |
| 1777886221 | 22.22° C | 44% | 1016.9 hPa | 0 mm | - | - | - |
| 1777885921 | 22.22° C | 45% | 1017 hPa | 0 mm | - | - | - |
| 1777885621 | 21.67° C | 46% | 1017 hPa | 0 mm | - | - | - |
| 1777885321 | 21.67° C | 47% | 1017.2 hPa | 0 mm | - | - | - |
| 1777885021 | 21.11° C | 51% | 1017.2 hPa | 0 mm | - | - | - |
| 1777884721 | 20.56° C | 51% | 1017.3 hPa | 0 mm | - | - | - |
| 1777884121 | 20° C | 51% | 1017.2 hPa | 0 mm | - | - | - |
| 1777883821 | 20° C | 51% | 1017.2 hPa | 0 mm | - | - | - |
| 1777883521 | 19.44° C | 53% | 1017.4 hPa | 0 mm | - | - | - |
| 1777883221 | 19.44° C | 54% | 1017.4 hPa | 0 mm | - | - | - |
| 1777882921 | 18.89° C | 55% | 1017.4 hPa | 0 mm | - | - | - |
| 1777882621 | 18.33° C | 58% | 1017.5 hPa | 0 mm | - | - | - |
| 1777882321 | 17.78° C | 58% | 1017.5 hPa | 0 mm | - | - | - |
| 1777882021 | 17.22° C | 61% | 1017.4 hPa | 0 mm | - | - | - |
| 1777881721 | 16.11° C | 63% | 1017.6 hPa | 0 mm | - | - | - |
| 1777881421 | 15.56° C | 66% | 1017.6 hPa | 0 mm | - | - | - |
| 1777881121 | 15° C | 68% | 1017.6 hPa | 0 mm | - | - | - |
| 1777880821 | 14.44° C | 70% | 1017.7 hPa | 0 mm | - | - | - |
| 1777880521 | 13.89° C | 70% | 1017.4 hPa | 0 mm | - | - | - |
| 1777880221 | 13.89° C | 71% | 1017.5 hPa | 0 mm | - | - | - |
| 1777879921 | 13.33° C | 73% | 1017.5 hPa | 0 mm | - | - | - |
* Rain latest hour (hover to see other rain measurements)
** Current wind speed in m/s (hover to see current wind gust speed)